FW6892 Weather Reports


Display with metric or nautical units.
time (UTC)temp
F
wind
direction
speed
MPH
gust
MPH
rain 1hr
in
rain 24hr
in
rain mn
in
humidity
%
barometer
mb
20260504050508 47 329 7.0 7.0 0.00 0.00 0.00 59 1009.1
20260504050008 47 314 6.0 8.0 0.00 0.00 0.00 59 1009.1
20260504045508 46 192 3.0 3.0 0.00 0.00 0.00 59 1009.1
20260504044508 46 335 0.0 8.0 0.00 0.00 0.00 59 1009.1
20260504044008 46 324 5.0 6.0 0.00 0.00 0.00 58 1009.1
20260504043508 46 212 2.0 4.0 0.00 0.00 0.00 58 1009.4
20260504043008 46 31 4.0 4.0 0.00 0.00 0.00 58 1009.4
20260504042508 47 354 6.0 6.0 0.00 0.00 0.00 57 1009.4
20260504042007 47 294 2.0 5.0 0.00 0.00 0.00 57 1009.4
20260504041509 47 239 7.0 7.0 0.00 0.00 0.00 57 1009.4
20260504041008 47 209 3.0 7.0 0.00 0.00 0.00 57 1009.4
20260504040508 47 299 8.0 8.0 0.00 0.00 0.00 56 1009.4
20260504040009 47 245 1.0 3.0 0.00 0.00 0.00 55 1009.4
20260504035508 47 191 0.0 2.0 0.00 0.00 0.00 55 1009.4
20260504035008 47 259 8.0 8.0 0.00 0.00 0.00 55 1009.4
20260504034507 48 221 2.0 5.0 0.00 0.00 0.00 55 1009.4
20260504034008 48 220 1.0 5.0 0.00 0.00 0.00 54 1009.4
20260504033508 48 213 0.0 7.0 0.00 0.00 0.00 54 1009.4
20260504033008 48 177 1.0 10.0 0.00 0.00 0.00 54 1009.4
20260504032507 48 157 0.0 4.0 0.00 0.00 0.00 53 1009.4
20260504032007 48 238 1.0 3.0 0.00 0.00 0.00 54 1009.4
20260504031508 48 208 3.0 6.0 0.00 0.00 0.00 53 1009.4
20260504030009 48 247 0.0 2.0 0.00 0.00 0.00 52 1009.8
20260504025508 48 256 6.0 6.0 0.00 0.00 0.00 52 1009.8
20260504025008 49 289 6.0 6.0 0.00 0.00 0.00 52 1009.8
20260504024509 49 125 1.0 6.0 0.00 0.00 0.00 51 1009.8
20260504024008 49 249 2.0 5.0 0.00 0.00 0.00 52 1009.8
20260504023508 49 184 3.0 10.0 0.00 0.00 0.00 52 1009.8
20260504023009 49 236 3.0 5.0 0.00 0.00 0.00 51 1009.8
20260504022508 49 276 2.0 5.0 0.00 0.00 0.00 51 1010.1
20260504022008 50 251 3.0 3.0 0.00 0.00 0.00 50 1009.8
20260504021509 50 251 4.0 8.0 0.00 0.00 0.00 50 1009.8
20260504021008 50 235 6.0 11.0 0.00 0.00 0.00 49 1010.1
20260504020008 50 289 4.0 4.0 0.00 0.00 0.00 49 1010.1
20260504015507 50 304 1.0 7.0 0.00 0.00 0.00 49 1010.1
20260504014507 50 155 4.0 6.0 0.00 0.00 0.00 48 1010.1
20260504014010 51 301 4.0 6.0 0.00 0.00 0.00 48 1010.1
20260504013509 51 252 6.0 6.0 0.00 0.00 0.00 47 1010.1
20260504013009 51 256 2.0 7.0 0.00 0.00 0.00 47 1010.1
20260504012509 51 265 1.0 4.0 0.00 0.00 0.00 47 1010.1
20260504011508 51 290 2.0 3.0 0.00 0.00 0.00 46 1010.1
20260504011008 51 225 4.0 7.0 0.00 0.00 0.00 46 1010.1
20260504010508 51 277 6.0 6.0 0.00 0.00 0.00 46 1010.1
20260504010009 52 274 5.0 11.0 0.00 0.00 0.00 46 1010.1
20260504005008 52 261 9.0 9.0 0.00 0.00 0.00 44 1010.1
20260504004509 52 295 4.0 4.0 0.00 0.00 0.00 44 1009.8
20260504004008 52 265 4.0 10.0 0.00 0.00 0.00 44 1010.1
20260504003509 52 247 0.0 3.0 0.00 0.00 0.00 43 1009.8
20260504002509 53 251 2.0 5.0 0.00 0.00 0.00 40 1009.8
20260504002008 53 301 3.0 3.0 0.00 0.00 0.00 39 1009.8
20260504001508 53 314 3.0 4.0 0.00 0.00 0.00 39 1009.8
20260504001010 53 317 4.0 5.0 0.00 0.00 0.00 38 1009.8
20260504000508 53 302 1.0 8.0 0.00 0.00 0.00 38 1009.8
20260504000008 53 286 6.0 9.0 0.00 0.00 0.00 39 1009.8
20260503235509 53 292 5.0 5.0 0.00 0.00 0.00 39 1009.8
20260503235008 53 324 2.0 5.0 0.00 0.00 0.00 38 1009.8
20260503234508 54 330 6.0 6.0 0.00 0.00 0.00 38 1009.8
20260503233508 54 271 5.0 5.0 0.00 0.00 0.00 38 1009.8
20260503233008 54 303 2.0 5.0 0.00 0.00 0.00 37 1009.8
20260503232509 54 329 2.0 7.0 0.00 0.00 0.00 37 1009.4
20260503232008 55 343 3.0 3.0 0.00 0.00 0.00 36 1009.8
20260503231510 55 324 4.0 5.0 0.00 0.00 0.00 36 1009.4
20260503231008 55 290 6.0 6.0 0.00 0.00 0.00 36 1009.4
20260503230508 55 351 3.0 4.0 0.00 0.00 0.00 36 1009.4
20260503230008 55 332 4.0 6.0 0.00 0.00 0.00 36 1009.4
20260503225508 55 347 4.0 6.0 0.00 0.00 0.00 36 1009.4
20260503225009 55 263 0.0 5.0 0.00 0.00 0.00 36 1009.4
20260503224509 55 254 1.0 8.0 0.00 0.00 0.00 36 1009.4
20260503224008 55 237 6.0 8.0 0.00 0.00 0.00 36 1009.8
20260503223508 56 286 3.0 4.0 0.00 0.00 0.00 36 1009.8
20260503223008 56 322 4.0 7.0 0.00 0.00 0.00 36 1009.4
20260503222507 56 295 5.0 9.0 0.00 0.00 0.00 36 1009.4
20260503221509 56 322 6.0 6.0 0.00 0.00 0.00 35 1009.4
20260503221007 56 340 7.0 9.0 0.00 0.00 0.00 35 1009.4
20260503220509 56 309 10.0 11.0 0.00 0.00 0.00 36 1009.4
20260503220008 56 304 9.0 11.0 0.00 0.00 0.00 36 1009.8
20260503215507 56 20 6.0 9.0 0.00 0.00 0.00 36 1009.4
20260503215009 55 324 4.0 5.0 0.00 0.00 0.00 36 1009.4
20260503213508 56 331 3.0 6.0 0.00 0.00 0.00 36 1009.8
20260503213010 56 312 6.0 9.0 0.00 0.00 0.00 36 1009.8
20260503212507 56 309 10.0 10.0 0.00 0.00 0.00 37 1009.8
20260503212008 56 308 9.0 9.0 0.00 0.00 0.00 37 1009.8
20260503211508 55 281 3.0 7.0 0.00 0.00 0.00 38 1009.8
20260503211008 55 335 4.0 8.0 0.00 0.00 0.00 38 1009.8
20260503210508 55 222 7.0 8.0 0.00 0.00 0.00 38 1009.4
20260503210008 55 280 8.0 8.0 0.00 0.00 0.00 37 1009.8
20260503205507 55 305 5.0 7.0 0.00 0.00 0.00 38 1009.8
20260503205007 55 236 0.0 7.0 0.00 0.00 0.00 37 1009.8
20260503204509 56 247 9.0 10.0 0.00 0.00 0.00 37 1009.8
20260503204008 56 251 6.0 9.0 0.00 0.00 0.00 36 1009.4
20260503203508 57 353 5.0 8.0 0.00 0.00 0.00 36 1009.8
20260503202007 56 1 4.0 9.0 0.00 0.00 0.00 38 1009.8
20260503201508 55 318 5.0 6.0 0.00 0.00 0.00 40 1009.8
20260503201007 54 301 8.0 8.0 0.00 0.00 0.00 40 1010.1
20260503200009 55 311 10.0 12.0 0.00 0.00 0.00 39 1010.1
20260503195508 55 346 4.0 6.0 0.00 0.00 0.00 40 1010.1
20260503194508 54 318 4.0 4.0 0.00 0.00 0.00 43 1010.1
20260503193508 54 312 4.0 4.0 0.00 0.00 0.00 43 1010.4
20260503193008 54 298 0.0 4.0 0.00 0.00 0.00 44 1010.4
20260503192508 53 50 0.0 2.0 0.00 0.00 0.00 44 1010.8
20260503192008 53 50 0.0 2.0 0.00 0.00 0.00 44 1010.8
20260503191008 53 30 3.0 5.0 0.00 0.00 0.00 44 1010.8
20260503190507 53 320 1.0 4.0 0.00 0.00 0.00 43 1010.8
20260503190010 53 81 3.0 4.0 0.00 0.00 0.00 44 1010.8
20260503185508 52 340 2.0 3.0 0.00 0.00 0.00 44 1010.8
20260503185008 53 336 1.0 3.0 0.00 0.00 0.00 45 1011.1
20260503184008 53 331 3.0 3.0 0.00 0.00 0.00 44 1011.1
20260503183507 53 285 3.0 4.0 0.00 0.00 0.00 44 1011.1
20260503183009 53 18 3.0 6.0 0.00 0.00 0.00 43 1011.1
20260503181508 54 299 5.0 6.0 0.00 0.00 0.00 44 1011.5
20260503181008 53 276 6.0 7.0 0.00 0.00 0.00 46 1011.5
20260503180508 52 321 0.0 6.0 0.00 0.00 0.00 46 1011.5
20260503180008 52 327 1.0 5.0 0.00 0.00 0.00 47 1011.5
20260503175508 53 336 4.0 4.0 0.00 0.00 0.00 46 1011.8
20260503175008 54 337 8.0 10.0 0.00 0.00 0.00 44 1011.5
20260503174508 54 336 7.0 7.0 0.00 0.00 0.00 43 1011.5
20260503174008 55 335 4.0 6.0 0.00 0.00 0.00 43 1011.5
20260503173508 55 313 7.0 8.0 0.00 0.00 0.00 44 1011.8
20260503173008 55 275 1.0 7.0 0.00 0.00 0.00 45 1011.8
20260503172508 54 302 8.0 8.0 0.00 0.00 0.00 46 1011.8
20260503172007 54 200 4.0 4.0 0.00 0.00 0.00 45 1011.8
20260503171508 54 294 4.0 6.0 0.00 0.00 0.00 46 1012.1
20260503171008 52 280 5.0 6.0 0.00 0.00 0.00 49 1012.1
20260503170509 51 290 0.0 4.0 0.00 0.00 0.00 50 1012.1
20260503150509 52 267 1.0 3.0 0.00 0.00 0.00 46 1013.8
20260503131008 44 98 0.0 0.0 0.00 0.00 0.00 67 1014.9
20260503130508 44 115 0.0 0.0 0.00 0.00 0.00 68 1014.9
20260503090508 38 298 0.0 0.0 0.00 0.00 0.00 83 1014.2
20260503080509 39 322 0.0 0.0 0.00 0.00 0.00 81 1014.5
20260503072507 39 357 0.0 0.0 0.00 0.00 0.00 80 1014.5
20260503072008 39 326 0.0 0.0 0.00 0.00 0.00 80 1014.5
20260503071508 39 346 0.0 0.0 0.00 0.00 0.00 79 1014.5
20260503071008 39 1 0.0 0.0 0.00 0.00 0.00 79 1014.5